User: anonymous   Login
Location: Lake Arresoe
(56.0000°N, 12.5000°E)
Time: 21:36:01
(UTC+02:00)
Language:

Resurs 1-4 Rocket - Orbit

View from above orbital plane
View from above orbital plane
View from above satellite
View from above satellite

Ground track
Ground track

The orbit data is extracted from the following two-line orbital elements,

1 25400U 98043G   21269.36893332  .00000003  00000-0  19548-4 0  9996
2 25400  98.6439 203.7485 0010923  60.7212 299.5058 14.25483080207398
Epoch (UTC): 26 September 2021 08:51:15
Eccentricity: 0.0010923
inclination: 98.6439°
perigee height: 799 km
apogee height: 815 km
right ascension of ascending node: 203.7485°
argument of perigee: 60.7212°
revolutions per day: 14.25483080
mean anomaly at epoch: 299.5058°
orbit number at epoch: 20739

The dashed part of the orbit path shows where the satellite is in the earth's shadow,  

DLR